Vertical_Velocity
0 -0 -1 -1 -1 -2 -1 -1 -2 -1 0 -1 -0 1 0 -0 -2 0 -0 0 -0 -0 -2 -1 -1 -2 -2 -3 -2 -1 -2 -2 -2
0 1 -0 -1 -0 -1 -1 -0 -1 -0 -2 -0 -1 -1 -2 -1 -1 -0 -2 -0 -0 -1 1 -2 -1 -2 -3 -2 -1 -1 -0 -2 -1
0 1 0 -0 -1 -0 0 1 0 1 -1 -0 -0 -0 -2 -0 -1 -2 -1 -1 -2 -2 -1 -1 -1 -1 -1 -1 -1 -1 -1 -1 -1
-1 0 -0 -1 -1 -1 -1 -0 -0 1 0 1 -0 -1 -1 0 -1 -1 0 -1 -1 -1 -0 -0 -0 -2 -1 -1 -1 -2 0 -1 -1
-1 -1 -1 -1 -1 -2 -2 -1 -0 -0 0 3 -3 1 -0 -1 -1 -1 0 -0 -0 -0 -1 0 0 -1 -2 -1 -1 -0 -1 -1 -1
-1 -1 -1 -1 -2 -1 -2 -2 -2 -1 -0 2 -2 -1 0 -1 -2 -2 -2 -2 -2 -2 -3 -2 -1 -1 -1 -1 -1 -0 0 -1 -0
0 -2 -0 0 -1 -1 -2 -2 -2 -2 -1 3 0 -0 -2 -2 -1 -1 -1 -1 -1 -1 -1 -2 -0 0 -0 -0 -1 -1 -1 -1 -1
-0 0 -0 -1 -1 0 -1 -1 -2 -2 -1 -1 -1 -1 0 0 -0 -1 -1 -1 -1 -0 -0 -1 -0 -0 -0 -1 -2 -3 -3 -3 -2
-1 1 1 -1 -1 -0 -1 0 0 -1 -0 2 -5 2 -3 -2 -1 -1 -1 -1 -1 -2 -2 -3 -2 -2 -1 -1 -1 -1 -1 -0 -1
-2 -2 -1 -1 -0 0 -1 -0 -0 0 -1 3 -6 -0 -1 -1 -1 -2 -2 -1 -1 -1 -1 -2 -2 -3 -3 -2 -2 -2 -2 -2 -2
-1 -2 -1 -1 -2 -1 -1 -2 -1 -0 -1 -1 3 -4 1 -2 -1 -1 -1 -2 -1 -1 -1 -1 -1 -2 -2 -3 -3 -2 -3 -2 -3
-3 -2 -1 -1 -1 -1 -0 -1 -1 -1 -0 -1 2 0 -3 1 -1 -1 -1 -1 -1 -2 -1 -1 -1 -1 -2 -1 -3 -3 -2 -1 -1
0 0 0 -1 -1 -2 -2 -1 -2 -1 -1 -1 -0 3 1 -4 0 -1 -2 -1 -1 -1 -1 -1 -1 -2 -1 -2 -1 -2 -2 -2 -2
-1 -1 -2 -1 -1 -1 0 -2 -1 -0 0 -1 -2 -1 -0 2 -1 -2 -3 -0 1 -1 -1 -2 -1 -2 -1 -5 -3 -2 -2 -2 -2
-1 -1 -2 -2 -1 -0 -1 -1 -0 -1 -3 -0 -1 -0 1 -2 -1 0 4 -3 -3 -1 -1 -0 0 2 -0 -3 1 -1 -0 0 -0
0 -0 -4 -1 -1 -2 -2 -2 -3 1 -2 -0 -0 -2 1 1 -0 -6 -1 3 2 1 -3 -2 -2 0 -5 -4 -3 -2 -1 -1 -1
-0 1 1 -1 -2 -5 0 -1 -3 -1 0 -3 -1 -1 -1 -2 4 -2 -3 -2 -1 -1 -0 -2 -0 2 2 -1 -1 -6 -3 -2 -3
0 0 -1 1 1 -2 -1 -1 -1 -6 -2 0 0 -1 1 -2 -1 3 3 -2 1 -1 -3 -2 0 0 -1 -4 -5 -4 -2 -1 -2
-0 1 0 -1 0 3 0 -3 -2 -3 1 -1 0 -1 2 -2 -2 -3 2 -1 4 -0 -2 -4 -2 0 1 2 -1 -3 -2 -0 -1
0 0 1 -1 -6 1 1 -5 -1 -5 -1 0 -1 -1 0 1 2 1 -1 -1 3 1 -1 -5 -1 -4 -5 -1 -2 -3 -2 -2 -1
Height
5873 5874 5874 5873 5873 5873 5872 5872 5872 5872 5872 5872 5872 5872 5872 5872 5871 5870 5869 5868 5868 5868 5867 5868 5867 5866 5865 5863 5862 5861 5860 5858 5856
5872 5872 5872 5872 5872 5872 5871 5871 5871 5872 5872 5872 5871 5871 5870 5870 5870 5870 5869 5868 5868 5867 5867 5867 5866 5865 5864 5863 5861 5859 5858 5855 5854
5870 5870 5870 5870 5870 5870 5870 5870 5870 5871 5870 5871 5871 5870 5870 5870 5870 5869 5868 5868 5867 5867 5866 5866 5865 5864 5862 5860 5859 5858 5856 5854 5853
5868 5868 5868 5869 5869 5869 5869 5869 5869 5870 5870 5870 5870 5869 5869 5869 5869 5868 5868 5867 5866 5866 5865 5864 5863 5862 5860 5859 5857 5856 5854 5852 5850
5865 5866 5866 5867 5867 5867 5867 5867 5868 5868 5869 5869 5867 5868 5868 5867 5867 5867 5866 5865 5865 5864 5863 5862 5861 5859 5858 5856 5854 5853 5851 5849 5848
5863 5863 5864 5864 5865 5865 5865 5865 5866 5866 5867 5868 5867 5866 5867 5866 5866 5865 5865 5863 5862 5861 5860 5859 5857 5856 5854 5853 5851 5849 5847 5846 5844
5860 5861 5862 5862 5863 5863 5863 5864 5864 5864 5865 5866 5866 5865 5865 5864 5864 5863 5862 5861 5860 5858 5857 5855 5854 5852 5850 5849 5847 5845 5843 5841 5840
5859 5859 5860 5861 5861 5861 5861 5862 5862 5862 5863 5863 5863 5863 5862 5861 5861 5860 5859 5858 5857 5855 5854 5852 5850 5848 5846 5845 5843 5841 5840 5837 5835
5857 5858 5858 5858 5858 5858 5858 5858 5859 5859 5860 5861 5859 5860 5859 5859 5857 5857 5856 5855 5854 5852 5851 5849 5847 5845 5843 5841 5838 5836 5834 5831 5829
5855 5856 5856 5856 5856 5856 5856 5856 5856 5856 5857 5858 5856 5856 5855 5855 5854 5853 5852 5851 5849 5848 5846 5844 5842 5840 5838 5836 5833 5831 5828 5825 5823
5852 5853 5854 5854 5854 5854 5853 5853 5853 5853 5853 5854 5853 5852 5851 5850 5849 5848 5847 5845 5844 5842 5840 5838 5836 5834 5831 5829 5826 5824 5822 5819 5816
5849 5850 5851 5851 5851 5851 5851 5851 5850 5850 5849 5848 5848 5848 5847 5846 5844 5843 5841 5840 5838 5836 5834 5832 5829 5827 5825 5822 5819 5816 5814 5811 5808
5846 5846 5847 5847 5847 5847 5847 5846 5846 5845 5844 5844 5842 5842 5841 5840 5838 5837 5836 5834 5832 5829 5827 5825 5822 5819 5816 5814 5810 5807 5805 5802 5799
5841 5842 5842 5842 5843 5842 5842 5841 5841 5840 5839 5838 5837 5836 5835 5834 5833 5831 5828 5826 5825 5822 5820 5817 5814 5811 5808 5804 5801 5798 5795 5792 5788
5835 5836 5837 5837 5837 5837 5836 5835 5835 5834 5833 5832 5831 5830 5829 5827 5824 5823 5821 5819 5817 5814 5812 5809 5806 5802 5799 5795 5792 5789 5785 5781 5777
5828 5829 5830 5830 5830 5830 5830 5829 5828 5827 5826 5825 5824 5822 5821 5819 5817 5814 5812 5810 5808 5805 5803 5800 5796 5793 5789 5785 5781 5778 5774 5770 5767
5820 5822 5823 5823 5823 5822 5822 5821 5821 5820 5819 5817 5815 5813 5812 5809 5808 5806 5803 5801 5798 5795 5792 5789 5786 5783 5779 5774 5770 5765 5762 5758 5754
5811 5813 5814 5815 5814 5814 5813 5813 5812 5811 5810 5808 5806 5804 5802 5799 5797 5796 5793 5791 5788 5785 5782 5779 5775 5772 5767 5762 5758 5753 5749 5745 5740
5802 5803 5804 5805 5805 5805 5804 5804 5803 5802 5800 5798 5796 5795 5792 5789 5787 5784 5782 5780 5777 5774 5770 5767 5764 5760 5756 5750 5745 5740 5735 5730 5726
5791 5792 5794 5795 5795 5795 5794 5794 5793 5792 5791 5789 5786 5784 5782 5779 5777 5774 5772 5769 5766 5762 5757 5753 5750 5745 5741 5736 5730 5725 5720 5715 5710